Accueil
METAR-TAF:

METAR-TAF

Aéroports :

Sanderson Field Airport

Shelton, Washington, États-Unis

latitude: 47-14-17N, longitude: 123-08-27W, altitude: 82 m

Observation

Le bulletin a été fait il y a 52 minutes, à 11:53 UTC
Vent 5 kt de sud-ouest
Température 6°C
Humidité 81%
Pression 1019 hPa
Visibilité: 16.1 km
Ciel clair

METAR: KSHN 261153Z AUTO 23005KT 10SM CLR 06/03 A3010 RMK AO2 SLP194 T00610033 10106 20061 53007

Heure: 05:45 (12:45 UTC)


TAF: absent

Observations et prévisions météorologiques de plus de 4000 aéroports (messages METAR et TAF).

Les stations disponibles sont représentées par des disques jaunes et rouges sur la carte.

Passer la souris dessus pour voir le nom de la station.

Cliquer dessus pour voir les observations et prévisions météorologiques.

Pour changer de carte: cliquez sur les boutons verts avec une croix noire pour zoomer, sur le bouton vert avec un tiret pour effectuer un zoom arrière, ou sur les flèches vertes pour les cartes adjacentes.


METAR-TAF: